Location: Auckland
(36.8670°S, 174.7670°E)
Time: 16:37:36
(UTC+12:00)

A-11 Canister half - Pass Details

Date: 24 July 2019
Orbit: 1526 x 1683 km, 47.3° (Epoch: 19 August)

Event Time Altitude Azimuth Distance (km) Brightness Sun altitude
Rises 14:36:57 0° 238° (WSW) 4,811 11.6 25.5°
Reaches altitude 10° 14:40:01 10° 239° (WSW) 3,843 11.2 25.2°
Maximum altitude 14:49:49 73° 321° (NW) 1,712 10.0 24.0°
Drops below altitude 10° 14:59:51 10° 43° (NE) 3,927 11.3 22.8°
Sets 15:03:02 0° 45° (NE) 4,920 11.7 22.4°
